• In Austria
  • List of Countries
  • For 7 days
  • Water Temperature
  • Satellite Maps
  • Weather Map
  • News
  • Weather Widgets
  • user-avatar
    Login

    Hourly Weather Ischgl

    Today, 13 December, Wednesday

    Time Temperature Precipitation Wind Pressure Humidity
    00:00 -15°C° 0.1 mm 2 mps 567 mmHg 94%
    01:00 -13°C° 0.1 mm 1 mps 567 mmHg 93%
    02:00 -15°C° 0 mm 1 mps 566 mmHg 92%
    03:00 -16°C° 0 mm 1 mps 566 mmHg 91%
    04:00 -17°C° 0 mm 1 mps 565 mmHg 90%
    05:00 -19°C° 0 mm 2 mps 565 mmHg 87%
    06:00 -19°C° 0 mm 2 mps 565 mmHg 83%
    07:00 -19°C° 0 mm 2 mps 565 mmHg 79%
    08:00 -18°C° 0 mm 2 mps 566 mmHg 77%
    09:00 -14°C° 0 mm 1 mps 567 mmHg 76%
    10:00 -12°C° 0 mm 1 mps 568 mmHg 74%
    11:00 -13°C° 0 mm 2 mps 568 mmHg 73%
    12:00 -10°C° 0 mm 2 mps 568 mmHg 72%
    13:00 -8°C° 0 mm 2 mps 568 mmHg 71%
    14:00 -9°C° 0 mm 2 mps 568 mmHg 74%
    15:00 -10°C° 0 mm 2 mps 567 mmHg 77%
    16:00 -13°C° 0 mm 3 mps 566 mmHg 79%
    17:00 -14°C° 0 mm 3 mps 566 mmHg 79%
    18:00 -14°C° 0 mm 3 mps 565 mmHg 78%
    19:00 -14°C° 0 mm 3 mps 565 mmHg 78%
    20:00 -14°C° 0 mm 3 mps 565 mmHg 76%
    21:00 -15°C° 0 mm 4 mps 564 mmHg 74%
    22:00 -15°C° 0 mm 4 mps 564 mmHg 73%
    23:00 -14°C° 0.1 mm 4 mps 564 mmHg 73%

    Tomorrow, 14 December, Thursday

    Time Temperature Precipitation Wind Pressure Humidity
    00:00 -12°C° 0.1 mm 4 mps 564 mmHg 73%
    01:00 -12°C° 0.1 mm 4 mps 564 mmHg 74%
    02:00 -12°C° 0.1 mm 4 mps 564 mmHg 74%
    03:00 -12°C° 0.1 mm 4 mps 564 mmHg 74%
    04:00 -11°C° 0.1 mm 4 mps 563 mmHg 74%
    05:00 -11°C° 0.2 mm 4 mps 564 mmHg 78%
    06:00 -10°C° 0.2 mm 3 mps 564 mmHg 81%
    07:00 -12°C° 0.2 mm 3 mps 564 mmHg 84%
    08:00 -10°C° 0.2 mm 3 mps 565 mmHg 86%
    09:00 -8°C° 0.2 mm 2 mps 565 mmHg 88%
    10:00 -8°C° 0.2 mm 2 mps 565 mmHg 89%
    11:00 -7°C° 0.2 mm 2 mps 565 mmHg 89%
    12:00 -7°C° 0.2 mm 2 mps 565 mmHg 89%
    13:00 -6°C° 0.2 mm 2 mps 565 mmHg 89%
    14:00 -7°C° 0.1 mm 2 mps 564 mmHg 89%
    15:00 -8°C° 0.1 mm 2 mps 563 mmHg 89%
    16:00 -9°C° 0.1 mm 2 mps 563 mmHg 88%
    17:00 -9°C° 0 mm 2 mps 562 mmHg 86%
    18:00 -12°C° 0 mm 3 mps 561 mmHg 85%
    19:00 -13°C° 0 mm 3 mps 561 mmHg 83%
    20:00 -14°C° 0 mm 4 mps 560 mmHg 80%
    21:00 -14°C° 0 mm 4 mps 560 mmHg 78%
    22:00 -14°C° 0 mm 4 mps 559 mmHg 76%
    23:00 -14°C° 0 mm 4 mps 559 mmHg 77%

    Day after tomorrow, 15 December, Friday

    Time Temperature Precipitation Wind Pressure Humidity
    00:00 -14°C° 0 mm 4 mps 559 mmHg 79%
    01:00 -12°C° 0 mm 4 mps 559 mmHg 80%
    02:00 -12°C° 0.9 mm 4 mps 559 mmHg 85%
    03:00 -12°C° 0.9 mm 3 mps 559 mmHg 90%
    04:00 -10°C° 0.9 mm 3 mps 559 mmHg 95%
    05:00 -12°C° 1.1 mm 3 mps 559 mmHg 95%
    06:00 -10°C° 1.1 mm 2 mps 559 mmHg 95%
    07:00 -12°C° 1.1 mm 2 mps 558 mmHg 95%
    08:00 -12°C° 0.5 mm 2 mps 559 mmHg 94%
    09:00 -12°C° 0.5 mm 2 mps 559 mmHg 93%
    10:00 -12°C° 0.5 mm 2 mps 559 mmHg 92%
    11:00 -10°C° 0.2 mm 2 mps 559 mmHg 90%
    12:00 -10°C° 0.2 mm 2 mps 559 mmHg 88%
    13:00 -10°C° 0.2 mm 2 mps 559 mmHg 86%
    14:00 -12°C° 0 mm 2 mps 559 mmHg 87%
    15:00 -13°C° 0 mm 2 mps 558 mmHg 88%
    16:00 -12°C° 0 mm 1 mps 557 mmHg 89%
    17:00 -15°C° 0 mm 2 mps 557 mmHg 87%
    18:00 -16°C° 0 mm 2 mps 557 mmHg 84%
    19:00 -16°C° 0 mm 2 mps 557 mmHg 82%
    20:00 -16°C° 0.1 mm 2 mps 558 mmHg 82%
    21:00 -16°C° 0.1 mm 2 mps 558 mmHg 83%
    22:00 -16°C° 0.1 mm 2 mps 559 mmHg 83%
    23:00 -15°C° 0.4 mm 2 mps 560 mmHg 86%

    16 December, Saturday

    Time Temperature Precipitation Wind Pressure Humidity
    00:00 -15°C° 0.4 mm 2 mps 560 mmHg 88%
    01:00 -15°C° 0.4 mm 2 mps 561 mmHg 91%
    02:00 -15°C° 0.1 mm 2 mps 561 mmHg 91%
    03:00 -15°C° 0.1 mm 2 mps 561 mmHg 90%
    04:00 -16°C° 0.1 mm 2 mps 561 mmHg 90%
    05:00 -16°C° 0.1 mm 2 mps 561 mmHg 89%
    06:00 -16°C° 0.1 mm 2 mps 562 mmHg 88%
    07:00 -17°C° 0.1 mm 2 mps 562 mmHg 87%
    08:00 -16°C° 0 mm 2 mps 563 mmHg 85%
    09:00 -16°C° 0 mm 2 mps 563 mmHg 84%
    10:00 -15°C° 0 mm 2 mps 564 mmHg 83%
    11:00 -14°C° 0 mm 2 mps 564 mmHg 81%
    12:00 -13°C° 0 mm 2 mps 565 mmHg 78%
    13:00 -10°C° 0 mm 1 mps 565 mmHg 75%
    14:00 -11°C° 0 mm 1 mps 565 mmHg 80%
    15:00 -12°C° 0 mm 1 mps 564 mmHg 84%
    16:00 -14°C° 0 mm 1 mps 564 mmHg 89%
    17:00 -14°C° 0 mm 1 mps 564 mmHg 90%
    18:00 -15°C° 0 mm 1 mps 564 mmHg 90%
    19:00 -16°C° 0 mm 1 mps 564 mmHg 91%
    20:00 -16°C° 0 mm 1 mps 565 mmHg 91%
    21:00 -15°C° 0 mm 1 mps 565 mmHg 91%
    22:00 -17°C° 0 mm 2 mps 565 mmHg 91%
    23:00 -17°C° 0.1 mm 2 mps 566 mmHg 91%

    17 December, Sunday

    Time Temperature Precipitation Wind Pressure Humidity
    00:00 -17°C° 0.1 mm 2 mps 566 mmHg 91%
    01:00 -17°C° 0.1 mm 2 mps 566 mmHg 91%
    02:00 -17°C° 0.2 mm 2 mps 566 mmHg 92%
    03:00 -17°C° 0.2 mm 2 mps 567 mmHg 92%
    04:00 -15°C° 0.2 mm 1 mps 567 mmHg 93%
    05:00 -17°C° 0.1 mm 2 mps 567 mmHg 93%
    06:00 -17°C° 0.1 mm 2 mps 568 mmHg 94%
    07:00 -17°C° 0.1 mm 2 mps 568 mmHg 95%
    08:00 -16°C° 0.1 mm 2 mps 569 mmHg 94%
    09:00 -16°C° 0.1 mm 2 mps 569 mmHg 93%
    10:00 -15°C° 0.1 mm 2 mps 570 mmHg 92%
    11:00 -15°C° 0.1 mm 2 mps 570 mmHg 90%
    12:00 -14°C° 0.1 mm 2 mps 571 mmHg 88%
    13:00 -14°C° 0.1 mm 2 mps 571 mmHg 86%
    14:00 -14°C° 0.1 mm 2 mps 571 mmHg 89%
    15:00 -15°C° 0.1 mm 2 mps 571 mmHg 91%
    16:00 -16°C° 0.1 mm 2 mps 571 mmHg 93%
    17:00 -16°C° 0.1 mm 2 mps 571 mmHg 94%
    18:00 -17°C° 0.1 mm 2 mps 571 mmHg 95%
    19:00 -18°C° 0.1 mm 2 mps 571 mmHg 95%
    20:00 -19°C° 0 mm 2 mps 571 mmHg 95%
    21:00 -19°C° 0 mm 2 mps 571 mmHg 94%
    22:00 -18°C° 0 mm 1 mps 571 mmHg 94%
    23:00 -21°C° 0 mm 2 mps 571 mmHg 92%

    18 December, Monday

    Time Temperature Precipitation Wind Pressure Humidity
    00:00 -21°C° 0 mm 2 mps 571 mmHg 91%
    01:00 -23°C° 0 mm 2 mps 570 mmHg 89%
    02:00 -23°C° 0 mm 2 mps 570 mmHg 88%
    03:00 -23°C° 0 mm 2 mps 570 mmHg 86%
    04:00 -23°C° 0 mm 2 mps 570 mmHg 84%
    05:00 -23°C° 0 mm 2 mps 570 mmHg 80%
    06:00 -23°C° 0 mm 2 mps 571 mmHg 76%
    07:00 -23°C° 0 mm 2 mps 571 mmHg 72%
    08:00 -20°C° 0 mm 2 mps 572 mmHg 72%
    09:00 -16°C° 0 mm 1 mps 573 mmHg 71%
    10:00 -15°C° 0 mm 1 mps 574 mmHg 71%
    11:00 -13°C° 0 mm 1 mps 574 mmHg 68%
    12:00 -11°C° 0 mm 1 mps 574 mmHg 65%
    13:00 -10°C° 0 mm 0 mps 575 mmHg 61%
    14:00 -11°C° 0 mm 0 mps 574 mmHg 66%
    15:00 -13°C° 0 mm 0 mps 573 mmHg 70%
    16:00 -14°C° 0 mm 0 mps 572 mmHg 75%
    17:00 -15°C° 0 mm 1 mps 572 mmHg 72%
    18:00 -16°C° 0 mm 1 mps 572 mmHg 69%
    19:00 -16°C° 0 mm 1 mps 572 mmHg 66%
    20:00 -16°C° 0 mm 1 mps 573 mmHg 64%
    21:00 -16°C° 0 mm 1 mps 573 mmHg 61%
    22:00 -16°C° 0 mm 1 mps 573 mmHg 58%
    23:00 -16°C° 0 mm 1 mps 573 mmHg 58%
    Show more